Flag for Germany Weather past 2 weeks in Pulheim, North Rhine-Westphalia, Germany

Now
79 °F

Scattered clouds.


Feels Like: 80 °F
Forecast: 62 / 80 °F
Wind: 2 mph from Northeast

Location: Noervenich

Current Time: Jul 23, 2014 at 12:16:31 PM

Latest Report: Jul 23, 2014 at 11:20 AM


Visibility: N/A

Pressure: 30.07 "Hg

Humidity: 58%

Dew point: 63 °F

Location of PulheimLocation

Historic Weather in Pulheim — Graph

°F

Pulheim temperature yesterday

Maximum temperature yesterday: 79 °F (at 5:03 PM)
Minimum temperature yesterday: 66 °F (at 12:20 AM)
Average temperature yesterday: 71 °F

Past Weeks' High & Low Weather Summary

 TemperatureHumidityPressure
High93 °F (Jul 18, 5:20 PM)100% (Jul 8, 10:20 AM)30.18 "Hg (Jul 8, 10:20 AM)
Low54 °F (Jul 9, 1:20 AM)28% (Jul 18, 5:20 PM)29.68 "Hg (Jul 9, 3:01 PM)
Average68 °F79%29.94 "Hg
* Reported Jul 8 10:20 AM — Jul 23 10:20 AM, Pulheim, Weather by CustomWeather, © 2014

Note: Actual official high and low records may vary slightly from our data, if they occured in-between our weather recording intervals... More about our weather records

Advertising

Pulheim weather history for previous 24 hours

 ConditionsComfort  
Time TempWeatherWind HumidityBarometerVisibility
10:20 AM
Jul 23
75 °FScattered clouds.3 mph65%30.07 "HgN/A
9:20 AM72 °FScattered clouds.1 mph83%30.07 "HgN/A
7:20 AM66 °FBroken clouds.No wind88%30.07 "Hg5 mi
6:20 AM63 °FPartly cloudy.3 mph94%30.07 "Hg5 mi
5:20 AM63 °FPassing clouds.5 mph94%30.07 "HgN/A
4:20 AM64 °FPassing clouds.5 mph88%30.07 "HgN/A
3:20 AM64 °FPassing clouds.5 mph94%30.07 "HgN/A
2:20 AM66 °FPassing clouds.5 mph88%30.07 "HgN/A
1:20 AM64 °FPassing clouds.3 mph94%30.09 "HgN/A
6:20 PM
Jul 22
79 °FPartly sunny.9 mph61%30.04 "HgN/A
5:20 PM79 °FPartly sunny.7 mph61%30.04 "HgN/A
5:03 PM79 °FPartly sunny.7 mph61%30.04 "HgN/A
4:20 PM77 °FBroken clouds.8 mph65%30.04 "HgN/A
3:20 PM77 °FBroken clouds.8 mph65%30.04 "HgN/A
2:20 PM75 °FPartly sunny.8 mph69%30.04 "HgN/A
1:20 PM73 °FBroken clouds.10 mph74%30.04 "HgN/A
12:20 PM75 °FBroken clouds.8 mph69%30.04 "Hg6 mi
Weather by CustomWeather, © 2014

See weather overviewHow to use our weather pages